Laredo, TX

11:51 AM CDT on April 29, 2017 (GMT -0500)
Laredo International

Weather History for KLRD - November, 2013

Change the Weather History Date:

Wednesday, November 13, 2013

  Actual Average Record
Temperature  
Mean Temperature 53 °F 67 °F  
Max Temperature 59 °F 77 °F 96 °F (1903)
Min Temperature 47 °F 56 °F 28 °F (1932)
Degree Days  
Heating Degree Days 12 3  
Month to date heating degree days 23 25  
Since 1 July heating degree days 23 37  
Cooling Degree Days 0 4  
Month to date cooling degree days 60 76  
Year to date cooling degree days 4417 4205  
Growing Degree Days 2 (Base 50)    
Moisture  
Dew Point 31 °F    
Average Humidity 45    
Maximum Humidity 58    
Minimum Humidity 36    
Precipitation  
Precipitation 0.00 in 0.04 in 1.26 in (1908)
Month to date precipitation 0.10 0.58  
Year to date precipitation 20.10 18.71  
Sea Level Pressure  
Sea Level Pressure 30.53 in    
Wind  
Wind Speed 9 mph (NNE)    
Max Wind Speed 21 mph    
Max Gust Speed 24 mph    
Visibility 10 miles    
Events      
T = Trace of Precipitation, MM = Missing Value Source: NWS Daily Summary

Daily Weather History Graph

Daily Weather History Graph

Search for Another Location

Airport or City:

Trip Planner

Search our weather history database for the weather conditions in past years. The results will help you decide how hot, cold, wet, or windy it might be!

Date:

Astronomy

Nov. 13, 2013 Rise Set
Actual Time 6:57 AM CST 5:46 PM CST
Civil Twilight 6:32 AM CST 6:11 PM CST
Nautical Twilight 6:04 AM CST 6:39 PM CST
Astronomical Twilight 5:36 AM CST 7:07 PM CST
Moon 3:18 PM CST (11/13) 3:11 AM CST (11/13)
Length of Visible Light 11h 38m
Length of Day
10h 49m
Waxing Gibbous, 85% of the Moon is Illuminated
Nov 13
Waxing Gibbous
Nov 17
Full
Nov 25
Last Quarter
Dec 2
New
Dec 9
First Quarter

Hourly Weather History & Observations

Time (CST) Temp. Dew Point Humidity Pressure Visibility Wind Dir Wind Speed Gust Speed Precip Events Conditions
12:56 AM 54.9 °F 37.9 °F 53% 30.57 in 10.0 mi North 18.4 mph - N/A   Overcast
1:56 AM 54.0 °F 34.9 °F 49% 30.58 in 10.0 mi NNE 15.0 mph - N/A   Overcast
2:56 AM 52.9 °F 32.9 °F 47% 30.58 in 10.0 mi NNE 12.7 mph 20.7 mph N/A   Overcast
3:56 AM 52.0 °F 30.0 °F 43% 30.58 in 10.0 mi NNE 16.1 mph - N/A   Overcast
4:56 AM 50.9 °F 28.0 °F 41% 30.60 in 10.0 mi NNE 12.7 mph - N/A   Overcast
5:56 AM 50.0 °F 26.1 °F 39% 30.61 in 10.0 mi NNE 13.8 mph - N/A   Overcast
6:56 AM 48.9 °F 25.2 °F 40% 30.62 in 10.0 mi North 11.5 mph - N/A   Overcast
7:56 AM 46.9 °F 24.1 °F 41% 30.63 in 10.0 mi North 13.8 mph - N/A   Overcast
8:56 AM 46.9 °F 26.1 °F 44% 30.64 in 10.0 mi NNE 10.4 mph - N/A   Overcast
9:56 AM 48.9 °F 27.1 °F 43% 30.65 in 10.0 mi NNE 6.9 mph - N/A   Overcast
10:56 AM 52.0 °F 28.0 °F 40% 30.63 in 10.0 mi NNE 6.9 mph - N/A   Overcast
11:56 AM 54.9 °F 31.1 °F 40% 30.59 in 10.0 mi North 5.8 mph - N/A   Mostly Cloudy
12:56 PM 55.9 °F 32.9 °F 42% 30.53 in 10.0 mi North 10.4 mph - N/A   Clear
1:56 PM 59.0 °F 32.9 °F 37% 30.49 in 10.0 mi North 10.4 mph - N/A   Clear
2:56 PM 57.9 °F 32.9 °F 39% 30.47 in 10.0 mi North 5.8 mph - N/A   Clear
3:56 PM 59.0 °F 32.9 °F 37% 30.45 in 10.0 mi NNW 9.2 mph - N/A   Clear
4:56 PM 56.8 °F 32.9 °F 40% 30.44 in 10.0 mi Calm Calm - N/A   Clear
5:56 PM 54.9 °F 34.0 °F 45% 30.43 in 10.0 mi Calm Calm - N/A   Clear
6:56 PM 52.9 °F 34.9 °F 50% 30.44 in 10.0 mi Calm Calm - N/A   Clear
7:56 PM 52.0 °F 34.9 °F 52% 30.45 in 10.0 mi Calm Calm - N/A   Clear
8:56 PM 52.0 °F 34.9 °F 52% 30.44 in 10.0 mi Calm Calm - N/A   Clear
9:56 PM 48.9 °F 34.9 °F 58% 30.43 in 10.0 mi ENE 4.6 mph - N/A   Clear
10:56 PM 47.8 °F 29.1 °F 48% 30.42 in 10.0 mi East 4.6 mph - N/A   Clear
11:56 PM 46.9 °F 28.0 °F 48% 30.40 in 10.0 mi East 4.6 mph - N/A   Clear